Dewpoint
18 15 13 14 15 14 11 11 10 12 12 10 12 13 15 15 15 15 16 17 19 29 39 42 45 45 46 47 48 49 50 51 51 39 48 54 60 61 60 62 63 62 63 65
11 12 10 11 13 13 12 12 12 13 15 17 15 14 15 15 15 16 17 20 34 37 39 41 42 43 44 45 46 46 47 49 51 50 42 50 55 57 59 60 62 63 63 64
16 15 20 16 17 17 16 14 13 13 14 15 14 11 8 13 15 19 30 37 38 39 39 39 39 40 41 42 43 44 45 46 48 51 52 49 54 56 57 59 62 63 64 64
21 20 21 18 17 16 12 14 15 13 11 6 15 3 8 10 15 25 34 37 39 38 38 37 38 38 39 40 41 42 43 45 45 48 51 51 50 53 55 57 58 61 63 64
21 14 13 17 15 17 13 11 14 14 13 13 11 9 1 11 14 25 35 39 38 37 37 37 36 36 37 39 40 41 42 43 44 46 48 50 52 54 55 55 58 61 62 63
16 17 18 16 15 16 16 16 16 16 13 10 8 6 -5 8 11 28 38 38 38 37 37 36 36 35 35 37 39 39 40 41 42 44 46 48 51 54 56 55 58 60 62 63
15 15 19 22 18 18 17 15 11 10 10 4 10 5 1 21 32 35 38 37 37 36 35 34 33 33 34 35 37 37 37 38 40 41 43 46 48 53 55 57 57 59 62 62
13 15 18 18 17 15 15 14 8 1 -1 3 15 9 16 35 37 38 36 35 35 34 34 32 32 32 33 34 35 35 35 36 37 39 41 44 47 50 56 59 59 59 60 61
15 14 19 17 15 15 15 16 17 17 14 12 5 10 32 35 37 36 34 33 33 32 31 31 31 31 32 33 34 34 34 35 36 38 40 43 46 50 57 58 60 60 61 61
26 18 21 20 15 12 16 14 15 17 6 -3 -6 -2 5 29 32 32 32 31 32 31 30 30 30 30 31 32 32 33 34 34 35 37 40 43 45 50 58 59 60 60 61 61
25 20 16 17 14 12 8 5 8 13 11 2 -5 -5 31 33 33 32 30 30 30 30 30 29 29 29 30 30 31 31 32 33 34 37 39 42 48 59 58 59 61 61 61 61
22 14 9 9 15 17 11 7 4 5 -1 7 7 6 33 33 32 31 29 30 30 30 30 29 28 28 29 28 29 29 31 32 33 35 39 41 46 52 59 60 60 61 61 61
19 11 5 5 13 17 12 15 17 22 17 10 5 7 31 32 30 30 29 29 30 29 29 28 27 28 27 27 27 28 29 30 32 34 37 38 41 43 47 58 59 59 59 59
19 11 3 -7 6 12 14 13 14 15 12 7 4 4 12 17 16 23 28 29 29 29 27 26 27 27 27 26 27 27 28 30 31 33 34 36 37 39 41 44 51 57 58 58
19 11 10 8 7 11 7 8 11 10 12 10 9 10 13 13 14 29 29 28 27 27 26 26 25 26 26 26 27 27 27 28 29 30 31 33 35 35 35 37 38 42 48 55
25 16 17 11 11 10 7 7 7 8 9 9 8 9 10 18 28 28 27 27 26 26 26 26 25 26 26 26 27 27 27 27 28 28 29 31 33 34 33 33 34 34 36 38
20 17 13 5 6 6 3 5 5 5 10 12 16 19 22 27 26 26 26 25 24 25 26 26 26 26 27 26 27 27 27 28 27 27 27 29 31 32 32 32 31 32 32 33
16 17 11 6 13 1 20 22 23 21 24 28 26 26 29 29 26 25 26 25 24 25 25 26 26 26 27 27 26 27 28 27 26 26 27 27 28 29 30 31 30 29 29 30
17 12 11 9 5 5 14 25 24 24 24 27 27 28 26 25 24 23 26 26 25 25 26 26 27 27 27 26 27 27 26 26 26 26 26 28 28 27 28 27 28 29 28 26
20 16 13 13 9 6 23 25 26 29 19 26 28 25 25 27 24 21 25 26 25 26 26 25 26 26 25 26 27 25 24 24 25 26 27 29 29 28 28 28 27 28 27 26
20 19 16 14 14 16 24 27 29 18 19 24 26 29 27 24 25 24 26 25 26 26 26 27 26 24 24 26 25 24 23 24 26 28 28 28 29 29 29 30 30 29 28 27
18 18 17 19 16 14 25 25 22 24 25 25 26 28 24 23 23 24 24 24 24 24 25 25 22 23 24 24 23 22 23 25 26 27 26 27 28 29 30 29 30 30 29 27
21 25 24 23 22 26 27 26 28 29 26 25 24 25 24 22 22 23 23 23 24 24 21 19 18 19 20 22 22 21 19 24 25 25 25 25 26 27 27 27 27 27 28 27
27 28 25 23 25 25 26 27 27 27 26 26 26 24 24 22 23 22 23 23 22 19 17 16 16 16 16 17 19 18 14 17 22 22 23 24 24 23 24 24 24 24 25 24
24 26 24 23 25 25 25 26 26 26 26 25 25 25 23 23 22 22 21 21 19 17 16 16 15 15 15 16 17 18 15 13 11 13 15 18 19 20 20 21 22 22 23 22
24 24 24 22 26 24 24 26 27 25 24 24 23 22 24 23 21 20 20 19 17 17 16 16 15 15 16 17 19 19 19 18 17 16 16 17 17 17 18 18 17 17 18 18
Wind_Speed
19 19 29 26 24 26 18 18 20 18 17 17 20 22 18 16 19 19 17 14 6 2 3 5 8 10 11 11 12 14 16 13 13 13 18 19 21 24 25 24 26 23 22 22
18 31 28 23 22 20 19 21 21 16 14 11 18 21 20 21 20 16 13 5 3 2 5 8 10 11 13 14 14 15 15 15 13 13 17 20 21 24 25 23 23 22 23 23
29 13 11 19 22 23 23 23 19 17 16 19 22 26 20 2 4 7 6 6 5 6 9 12 15 15 15 15 17 17 17 17 16 17 17 20 22 21 22 23 24 25 28 28
20 25 14 15 23 19 23 19 18 19 15 13 3 9 6 8 8 11 7 6 6 9 11 14 17 19 19 18 17 18 19 19 18 17 17 19 25 27 26 26 26 24 28 28
16 11 18 25 21 16 17 12 16 16 16 16 18 12 10 11 14 10 8 7 8 10 13 15 17 19 20 20 21 20 21 21 19 19 19 19 24 26 25 24 24 25 24 27
21 4 8 11 19 21 9 11 12 12 14 19 20 17 13 17 9 10 6 6 8 10 12 14 16 18 19 20 22 23 24 23 21 20 21 22 25 28 28 26 23 22 23 23
19 17 5 4 9 9 13 13 13 12 13 17 1 12 14 8 3 5 4 6 10 12 14 16 18 19 19 21 23 24 25 27 24 24 24 23 25 27 33 30 23 23 21 21
17 13 11 4 8 10 17 19 16 13 16 8 5 9 5 11 12 11 7 7 9 12 14 16 18 19 21 22 22 23 25 28 27 26 27 25 25 24 29 28 23 22 21 21
12 7 3 5 2 2 9 14 3 7 11 13 16 9 9 11 13 8 6 8 9 11 14 17 19 19 22 23 25 25 26 27 26 27 26 26 24 27 32 32 24 20 18 18
3 4 3 2 1 1 4 3 4 6 7 16 12 14 9 13 7 5 7 9 11 12 15 17 18 19 19 20 22 22 22 24 27 27 25 25 28 31 29 26 24 20 19 18
7 12 5 1 7 11 6 8 6 6 9 11 16 9 7 10 3 4 8 10 11 13 15 17 19 18 18 19 21 22 22 24 25 24 26 27 27 22 22 20 20 21 20 21
4 2 12 10 1 7 9 11 13 14 13 12 14 18 5 7 5 7 9 9 10 12 14 16 19 19 19 22 23 24 24 27 26 27 24 23 21 19 4 11 17 15 15 17
8 5 8 5 5 4 8 9 8 5 4 15 18 5 11 7 2 4 9 8 9 11 14 16 19 19 22 24 26 26 26 25 26 25 22 21 18 17 16 1 6 10 13 16
5 6 9 13 5 2 7 14 11 10 9 17 23 25 16 12 19 8 7 7 8 10 14 17 18 20 23 24 23 25 25 25 25 23 22 21 22 18 17 18 13 3 4 9
3 7 9 10 8 7 11 14 18 22 22 24 25 28 22 23 22 4 3 4 7 11 15 17 19 22 24 23 23 23 24 24 26 25 25 23 21 19 27 19 21 20 15 4
3 3 4 11 11 13 17 20 23 23 23 27 29 33 26 22 5 1 2 5 7 11 13 15 18 22 22 23 23 22 23 24 24 24 26 22 24 22 22 23 23 24 23 19
6 6 5 8 4 7 15 22 20 20 15 16 21 22 21 5 5 2 3 6 7 10 11 15 18 18 20 21 21 22 22 21 22 24 26 28 22 23 23 25 28 28 26 22
7 8 6 5 3 9 3 6 4 8 14 5 14 21 12 14 11 8 8 6 9 9 11 13 15 17 18 19 20 21 21 22 23 25 25 26 28 27 24 24 28 26 27 23
13 12 7 6 11 9 5 1 4 5 4 4 6 4 14 18 16 12 8 9 9 8 10 12 13 14 16 20 20 20 23 24 25 27 27 25 25 26 26 28 27 22 23 29
10 15 11 6 5 4 4 8 8 6 13 6 6 10 16 13 6 4 6 8 9 10 11 13 14 15 18 20 19 20 23 24 26 25 24 25 25 26 27 26 26 23 27 26
9 10 16 13 7 1 7 16 10 7 4 6 6 10 12 2 8 13 8 10 10 11 12 11 14 18 19 19 18 21 21 24 21 22 23 26 26 26 24 25 24 23 24 24
5 9 6 6 6 4 16 1 5 3 6 6 10 14 19 16 15 12 11 11 11 13 13 13 16 18 18 18 18 21 22 18 19 21 25 26 25 24 23 24 24 25 23 25
3 4 2 4 5 6 8 8 6 6 7 9 12 14 17 16 13 11 12 13 13 14 14 14 16 17 18 20 19 19 18 17 17 21 23 24 25 24 25 26 24 22 22 21
3 2 1 7 6 7 7 8 9 10 11 12 12 13 13 14 12 12 12 13 13 13 14 14 16 19 19 19 20 19 17 14 16 19 19 20 23 26 26 23 25 25 23 21
3 4 2 5 7 7 8 7 8 11 12 13 13 13 13 13 13 13 14 14 13 13 14 15 16 17 19 18 20 20 20 17 18 18 18 18 18 19 21 26 24 22 25 24
4 2 3 4 5 6 6 6 8 10 11 11 14 14 13 13 14 14 14 12 12 13 13 15 16 16 17 18 20 20 20 19 17 17 17 17 16 15 15 14 17 26 26 27
Wind_Direction
211 224 227 232 228 254 266 268 266 268 268 274 267 265 266 258 252 254 257 249 254 287 3 10 2 353 344 348 345 338 328 325 311 281 243 230 228 228 231 226 223 220 216 209
210 233 239 236 243 240 247 257 260 271 270 267 267 275 276 266 252 254 255 198 175 5 12 8 357 352 347 339 338 333 328 323 314 290 271 250 234 231 229 227 227 216 216 206
216 245 260 229 230 233 236 244 256 264 284 276 269 274 257 225 178 172 151 121 95 41 4 356 355 352 347 340 334 326 322 318 314 305 285 270 251 240 228 226 222 217 210 204
236 251 228 225 234 222 242 236 255 256 260 262 159 281 204 229 170 173 150 107 55 26 10 358 349 345 342 338 332 324 319 315 309 308 297 274 263 236 231 227 227 216 216 212
221 235 236 235 232 214 246 256 246 244 251 262 255 256 253 171 179 163 134 76 46 21 5 352 345 339 334 336 333 327 321 312 308 305 293 283 266 258 241 232 233 218 215 214
250 216 229 250 236 242 265 230 232 243 249 251 247 229 277 176 182 134 113 66 29 8 354 344 338 334 332 334 332 329 325 316 311 305 295 281 273 262 253 234 222 218 212 207
212 216 201 217 197 189 217 227 231 226 214 243 154 214 241 143 98 75 110 35 8 359 352 346 344 339 334 332 331 328 325 315 314 307 296 284 276 267 252 243 230 219 208 201
209 203 204 166 239 238 215 228 240 255 247 256 187 239 158 108 117 101 80 33 358 352 347 343 339 336 334 331 328 326 324 316 315 309 300 290 278 265 252 236 227 228 215 207
209 192 94 66 22 265 197 224 319 273 264 269 253 221 143 139 141 119 60 15 358 345 341 341 339 340 337 332 330 329 322 316 314 309 302 293 283 271 245 226 217 228 222 204
105 235 222 167 225 113 275 76 198 219 251 255 248 243 238 173 132 58 14 355 351 348 350 348 343 340 336 330 329 327 317 317 314 311 304 298 290 278 228 221 210 218 220 202
177 224 151 196 214 246 202 219 233 287 258 266 277 273 49 98 108 16 3 2 359 355 354 349 344 342 342 337 339 333 326 326 320 313 317 318 306 272 220 211 207 208 213 199
171 203 230 215 288 257 250 254 250 239 243 246 280 274 124 105 50 5 5 1 356 353 352 350 346 346 351 349 346 341 338 336 324 327 324 324 336 343 241 204 212 201 199 193
168 200 206 208 215 203 219 214 206 221 247 247 247 236 128 138 121 5 338 350 352 349 353 354 350 349 3 354 352 343 340 335 335 334 341 345 352 356 10 325 181 178 185 185
159 212 240 253 33 85 199 194 204 207 231 249 247 270 265 275 306 321 319 347 353 358 357 359 348 -0 5 359 352 342 340 342 342 346 353 358 5 4 19 11 13 117 137 185
169 236 239 251 256 246 249 236 235 240 242 256 272 275 283 286 298 337 307 4 5 5 1 356 355 5 5 358 350 346 347 347 353 356 360 4 15 21 38 14 22 31 38 64
151 224 246 259 258 253 259 257 254 257 262 268 274 277 282 300 97 203 21 31 19 8 1 355 3 10 2 360 356 350 352 356 1 7 7 2 14 29 37 37 38 39 42 36
186 193 210 250 251 270 269 251 251 252 260 257 258 270 289 215 173 141 85 47 25 14 359 6 11 5 2 1 358 359 357 0 14 16 14 18 14 30 38 44 44 40 41 43
198 198 215 268 225 247 88 57 317 278 281 257 285 289 282 138 112 91 61 52 40 15 12 14 12 8 6 5 7 7 13 16 19 23 22 23 26 31 36 43 52 45 40 39
222 213 228 242 227 292 218 88 352 316 285 18 300 91 121 123 118 72 61 58 49 32 27 22 16 15 15 15 10 17 21 22 24 24 25 28 33 38 39 42 45 44 58 47
203 220 210 191 257 260 74 329 322 268 246 24 312 166 151 161 182 111 69 64 57 47 40 33 24 24 24 19 17 26 25 24 25 22 26 31 34 38 41 44 45 47 55 57
148 192 216 224 252 231 352 325 321 204 35 355 307 173 175 109 74 113 95 73 61 51 43 40 40 35 27 21 26 33 31 27 17 27 33 35 34 38 38 44 44 49 53 58
184 184 192 212 228 246 5 352 359 48 53 52 60 105 109 105 98 98 86 73 62 55 47 47 49 41 31 25 28 35 33 26 27 33 37 37 37 37 37 42 42 43 45 49
201 337 55 353 54 57 39 46 36 62 81 71 85 93 106 108 105 97 88 74 62 57 54 50 52 48 39 34 31 32 28 29 36 42 43 41 39 39 40 41 41 43 42 46
126 8 133 186 83 64 66 68 61 69 83 89 89 97 103 106 101 94 84 73 65 57 52 51 53 49 42 36 35 33 34 41 46 50 49 46 49 46 40 44 44 42 38 42
8 323 88 93 126 119 78 71 91 92 93 93 91 96 100 101 94 91 82 74 67 60 56 53 54 51 45 41 38 34 31 34 46 49 49 51 53 55 59 51 45 49 46 46
15 16 342 84 93 77 87 99 109 101 99 102 105 98 94 101 98 94 85 79 74 66 60 58 54 52 45 41 35 33 33 37 39 44 44 40 45 50 50 61 68 56 55 52